Miscellaneous Local Product
Issued by NWS North Platte, NE

Home | Current Version | Previous Version | Text Only | Print | Product List | Glossary On
Versions: 1 2 3 4 5 6 7 8 9 10 11 12 13 14 15 16 17 18 19 20 21 22 23 24 25 26 27 28 29 30 31 32 33 34 35 36 37 38 39 40 41 42 43 44 45 46 47 48 49 50
000
AXUS43 KLBF 272310
MISLBF


WESTERN AND NORTH CENTRAL NEBRASKA HOURLY WEATHER ROUNDUP
NATIONAL WEATHER SERVICE NORTH PLATTE NE
600 PM CDT WED MAY 27 2015

***STATIONS NOT REPORTING VARIABLES SUCH AS SKY/WEATHER OR
PRESSURE ARE PROVIDED BY THE NEBRASKA DEPARTMENT OF
ROADS...RAWS...AND APRS NETWORKS...AND ARE NOT UNDER
NATIONAL WEATHER SERVICE QUALITY CONTROL***

...OBSERVATIONS IN AND NEAR THE EASTERN PANHANDLE OF NEBRASKA...

CITY           SKY/WX    TMP DP  RH WIND       PRES   REMARKS
PINE RIDGE     CLOUDY    63  55  75 S9        29.96S
CHADRON        LGT RAIN  59  54  83 S3        29.94F
ALLIANCE       CLOUDY    62  55  77 S6        29.98R
SIDNEY         PTSUNNY   68  52  56 E14       30.02F
WHITECLAY        N/A     68  51  54 SW5         N/A
BIG SPRINGS      N/A     67  60  79 E3          N/A
$$

...OBSERVATIONS IN NORTH CENTRAL NEBRASKA...

CITY           SKY/WX    TMP DP  RH WIND       PRES   REMARKS
VALENTINE      PTSUNNY   76  50  40 SE17      29.95F
THEDFORD       LGT RAIN  72  52  48 S17       30.00F
AINSWORTH      MOSUNNY   75  52  45 SE15      29.99S
O`NEILL        PTSUNNY   80  45  29 SE14G23   30.01F
ORD            CLOUDY    69  55  60 S13       30.01F
BROKEN BOW     PTSUNNY   73  57  57 SE14      30.03F
BROWNLEE         N/A     75  49  38 S17         N/A
VALENTINE NWR    N/A     74  50  42 S13G22      N/A
SPRINGVIEW       N/A     79  53  39 S12G20      N/A
HALSEY           N/A     74  53  47 S10G24      N/A
BREWSTER         N/A     80  58  47 S23         N/A
ROSE             N/A     81  56  42 E15         N/A
NEWPORT          N/A     79  50  36 SE14        N/A
SARGENT          N/A     70  56  61 CALM        N/A
COMSTOCK         N/A     72  59  63 S7          N/A
EWING            N/A     78  47  33 S8          N/A
$$

...OBSERVATIONS IN SOUTHWEST NEBRASKA AND FAR NORTHEAST COLORADO...

CITY           SKY/WX    TMP DP  RH WIND       PRES   REMARKS
WRAY           MOCLDY    77  54  44 N7G24     29.96S
HOLYOKE        FAIR      66  55  68 SE17G24   29.98F
IMPERIAL       TSTM      64  59  83 NE9       30.00R
OGALLALA       CLOUDY    68  58  71 SE13      30.01R
NORTH PLATTE   CLOUDY    71  54  54 SE10      30.01R
MCCOOK         CLOUDY    71  57  61 E10       30.02R
LEXINGTON      PTSUNNY   73  56  55 SE13G18   30.03F
PAXTON           N/A     70  58  64 SE18        N/A
GOTHENBURG       N/A     72  53  51 SE9         N/A
CALLAWAY         N/A     73  57  57 SE21        N/A
$$

...NORTH PLATTE AREA...

CITY           SKY/WX    TMP DP  RH WIND       PRES   REMARKS
AIRPORT        CLOUDY    71  54  54 SE10      30.01R
$$

...SOME WEATHER OBSERVATIONS FROM AROUND THE REGION...

CITY           SKY/WX    TMP DP  RH WIND       PRES   REMARKS
DENVER         PTSUNNY   74  41  30 NE5       30.00F
LARAMIE        MOSUNNY   64  35  34 W10       30.09F
CHEYENNE       PTSUNNY   64  45  49 SE8       30.04F
SCOTTSBLUFF    MOSUNNY   70  54  56 SE8       29.97R
RAPID CITY     CLOUDY    73  56  54 SE10      29.91F
PIERRE         PTSUNNY   75  52  44 SE10      29.92F
WINNER         FAIR      80  47  31 S16G24    29.95F
SIOUX FALLS    CLOUDY    80  52  37 S6        29.99F
OMAHA          CLOUDY    82  48  30 S7        30.03F
GRAND ISLAND   CLOUDY    76  53  44 W9        30.04F
KANSAS CITY    PTSUNNY   79  57  46 S3        30.06F
WICHITA        PTSUNNY   82  63  52 SE12      30.02S
HAYS           CLOUDY    72  59  64 SE9       30.03R
LIBERAL        MOSUNNY   77  61  57 SE21      29.96S
GOODLAND       PTSUNNY   70  55  59 SE24G35   29.96F
$$



USA.gov is the U.S. government's official web portal to all federal, state and local government web resources and services.